| time (UTC) | temp F | wind direction | speed knots | gust knots | rain 1hr in | rain 24hr in | rain mn in | humidity % | barometer mb |
| 20260902120305 | 71 | 127 | 0.9 | 0.9 | 0.00 | 0.00 | 0.00 | 95 | 1018.7 |
| 20260902115759 | 71 | 140 | 0.9 | 1.7 | 0.00 | 0.00 | 0.00 | 95 | 1018.5 |
| 20260902115255 | 71 | 111 | 3.5 | 5.2 | 0.00 | 0.00 | 0.00 | 95 | 1018.5 |
| 20260902114751 | 70 | 118 | 2.6 | 4.3 | 0.00 | 0.00 | 0.00 | 95 | 1018.7 |
| 20260902114248 | 70 | 113 | 3.5 | 5.2 | 0.00 | 0.00 | 0.00 | 95 | 1018.4 |
| 20260902113742 | 70 | 124 | 2.6 | 2.6 | 0.00 | 0.00 | 0.00 | 95 | 1018.4 |
| 20260902113237 | 70 | 138 | 1.7 | 1.7 | 0.00 | 0.00 | 0.00 | 95 | 1018.4 |
| 20260902112736 | 70 | 141 | 0.9 | 1.7 | 0.00 | 0.00 | 0.00 | 95 | 1018.6 |
| 20260902112234 | 70 | 119 | 1.7 | 1.7 | 0.00 | 0.00 | 0.00 | 95 | 1018.2 |
| 20260902111729 | 70 | 115 | 1.7 | 1.7 | 0.00 | 0.00 | 0.00 | 95 | 1018.5 |
| 20260902111225 | 70 | 130 | 0.0 | 0.0 | 0.00 | 0.00 | 0.00 | 95 | 1018.3 |
| 20260902110721 | 70 | 118 | 2.6 | 2.6 | 0.00 | 0.00 | 0.00 | 95 | 1018.3 |
| 20260902110217 | 70 | 142 | 0.9 | 1.7 | 0.00 | 0.00 | 0.00 | 95 | 1018.3 |
| 20260902105716 | 70 | 112 | 1.7 | 1.7 | 0.00 | 0.00 | 0.00 | 95 | 1018.1 |
| 20260902105211 | 70 | 119 | 0.9 | 1.7 | 0.00 | 0.00 | 0.00 | 95 | 1018.3 |
| 20260902104707 | 70 | 146 | 0.0 | 0.0 | 0.00 | 0.00 | 0.00 | 95 | 1018.4 |
| 20260902104203 | 70 | 129 | 0.0 | 0.0 | 0.00 | 0.00 | 0.00 | 95 | 1018.3 |
| 20260902103701 | 70 | 128 | 0.0 | 0.0 | 0.00 | 0.00 | 0.00 | 95 | 1018.5 |
| 20260902103157 | 70 | 152 | 0.0 | 0.0 | 0.00 | 0.00 | 0.00 | 95 | 1018.8 |
| 20260902102653 | 70 | 142 | 0.0 | 0.0 | 0.00 | 0.00 | 0.00 | 95 | 1018.5 |
| 20260902102150 | 70 | 137 | 0.0 | 0.0 | 0.00 | 0.00 | 0.00 | 95 | 1018.7 |
| 20260902101645 | 70 | 153 | 0.0 | 0.0 | 0.00 | 0.00 | 0.00 | 95 | 1018.7 |
| 20260902101144 | 70 | 97 | 1.7 | 1.7 | 0.00 | 0.00 | 0.00 | 95 | 1018.5 |
| 20260902100639 | 70 | 149 | 0.0 | 0.0 | 0.00 | 0.00 | 0.00 | 95 | 1018.5 |
| 20260902100134 | 70 | 167 | 0.0 | 0.0 | 0.00 | 0.00 | 0.00 | 95 | 1018.7 |
| 20260902095633 | 70 | 133 | 0.0 | 0.0 | 0.00 | 0.00 | 0.00 | 95 | 1018.6 |
| 20260902095133 | 70 | 159 | 0.0 | 0.0 | 0.00 | 0.00 | 0.00 | 95 | 1018.7 |
| 20260902094627 | 70 | 146 | 0.0 | 0.0 | 0.00 | 0.00 | 0.00 | 95 | 1018.5 |
| 20260902094124 | 69 | 161 | 0.0 | 0.0 | 0.00 | 0.00 | 0.00 | 95 | 1018.5 |
| 20260902093618 | 69 | 160 | 0.0 | 0.0 | 0.00 | 0.00 | 0.00 | 95 | 1018.7 |
| 20260902093112 | 69 | 154 | 0.0 | 0.0 | 0.00 | 0.00 | 0.00 | 95 | 1018.5 |
| 20260902092606 | 69 | 160 | 0.0 | 0.0 | 0.00 | 0.00 | 0.00 | 95 | 1018.5 |
| 20260902092101 | 69 | 151 | 0.0 | 0.0 | 0.00 | 0.00 | 0.00 | 95 | 1018.6 |
| 20260902091557 | 69 | 151 | 0.0 | 0.0 | 0.00 | 0.00 | 0.00 | 95 | 1018.7 |
| 20260902091052 | 69 | 152 | 0.0 | 0.0 | 0.00 | 0.00 | 0.00 | 95 | 1018.5 |
| 20260902090548 | 69 | 152 | 0.0 | 0.0 | 0.00 | 0.00 | 0.00 | 95 | 1018.4 |
| 20260902090047 | 69 | 157 | 0.0 | 0.0 | 0.00 | 0.00 | 0.00 | 95 | 1018.5 |
| 20260902085541 | 69 | 157 | 0.0 | 0.0 | 0.00 | 0.00 | 0.00 | 95 | 1018.7 |
| 20260902085037 | 69 | 157 | 0.0 | 0.0 | 0.00 | 0.00 | 0.00 | 95 | 1018.6 |
| 20260902084534 | 69 | 160 | 0.0 | 0.0 | 0.00 | 0.00 | 0.00 | 95 | 1018.7 |
| 20260902084029 | 69 | 155 | 0.0 | 0.0 | 0.00 | 0.00 | 0.00 | 95 | 1018.7 |
| 20260902083519 | 69 | 141 | 0.0 | 0.0 | 0.00 | 0.00 | 0.00 | 95 | 1018.7 |
| 20260902083013 | 69 | 156 | 0.0 | 0.0 | 0.00 | 0.00 | 0.00 | 95 | 1018.6 |
| 20260902082509 | 69 | 140 | 0.0 | 0.0 | 0.00 | 0.00 | 0.00 | 95 | 1018.4 |
| 20260902082005 | 69 | 152 | 0.0 | 0.0 | 0.00 | 0.00 | 0.00 | 95 | 1018.5 |
| 20260902081502 | 69 | 130 | 0.9 | 0.9 | 0.00 | 0.00 | 0.00 | 95 | 1018.5 |
| 20260902081001 | 69 | 146 | 0.0 | 0.0 | 0.00 | 0.00 | 0.00 | 95 | 1018.5 |
| 20260902080457 | 69 | 152 | 0.0 | 0.0 | 0.00 | 0.00 | 0.00 | 95 | 1018.4 |
| 20260902075956 | 69 | 119 | 0.9 | 1.7 | 0.00 | 0.00 | 0.00 | 95 | 1018.4 |
| 20260902075453 | 69 | 127 | 0.9 | 0.9 | 0.00 | 0.00 | 0.00 | 95 | 1018.3 |
| 20260902074949 | 69 | 142 | 0.0 | 0.9 | 0.00 | 0.00 | 0.00 | 95 | 1018.4 |
| 20260902074444 | 69 | 138 | 0.0 | 0.0 | 0.00 | 0.00 | 0.00 | 95 | 1018.2 |
| 20260902073938 | 69 | 144 | 0.9 | 1.7 | 0.00 | 0.00 | 0.00 | 95 | 1018.4 |
| 20260902073434 | 69 | 141 | 0.0 | 0.0 | 0.00 | 0.00 | 0.00 | 95 | 1018.4 |
| 20260902072930 | 69 | 124 | 0.0 | 0.0 | 0.00 | 0.00 | 0.00 | 95 | 1018.4 |
| 20260902072426 | 69 | 137 | 0.0 | 0.0 | 0.00 | 0.00 | 0.00 | 95 | 1018.3 |
| 20260902071922 | 69 | 144 | 0.9 | 1.7 | 0.00 | 0.00 | 0.00 | 95 | 1018.3 |
| 20260902071421 | 69 | 162 | 0.0 | 0.0 | 0.00 | 0.00 | 0.00 | 95 | 1018.2 |
| 20260902070918 | 69 | 142 | 0.0 | 0.0 | 0.00 | 0.00 | 0.00 | 95 | 1018.0 |
| 20260902070414 | 69 | 131 | 0.9 | 1.7 | 0.00 | 0.00 | 0.00 | 95 | 1018.1 |
| 20260902065912 | 69 | 133 | 0.0 | 0.0 | 0.00 | 0.00 | 0.00 | 95 | 1018.1 |
| 20260902065408 | 69 | 157 | 0.0 | 0.0 | 0.00 | 0.00 | 0.00 | 95 | 1018.4 |
| 20260902064903 | 69 | 156 | 0.0 | 0.0 | 0.00 | 0.00 | 0.00 | 95 | 1018.7 |
| 20260902064358 | 69 | 150 | 0.0 | 0.0 | 0.00 | 0.00 | 0.00 | 95 | 1018.5 |
| 20260902063854 | 69 | 150 | 0.0 | 0.0 | 0.00 | 0.00 | 0.00 | 95 | 1018.7 |
| 20260902063349 | 69 | 147 | 0.0 | 0.0 | 0.00 | 0.00 | 0.00 | 95 | 1018.3 |
| 20260902062848 | 69 | 164 | 0.0 | 0.0 | 0.00 | 0.00 | 0.00 | 95 | 1018.6 |
| 20260902062343 | 69 | 166 | 0.0 | 0.0 | 0.00 | 0.00 | 0.00 | 95 | 1018.5 |
| 20260902061842 | 69 | 166 | 0.0 | 0.0 | 0.00 | 0.00 | 0.00 | 95 | 1018.7 |
| 20260902061338 | 69 | 167 | 0.0 | 0.0 | 0.00 | 0.00 | 0.00 | 95 | 1018.5 |
| 20260902060834 | 69 | 167 | 0.0 | 0.0 | 0.00 | 0.00 | 0.00 | 95 | 1018.6 |
| 20260902060329 | 69 | 167 | 0.0 | 0.0 | 0.00 | 0.00 | 0.00 | 95 | 1018.7 |
| 20260902055825 | 69 | 167 | 0.0 | 0.0 | 0.00 | 0.00 | 0.00 | 95 | 1018.7 |
| 20260902055321 | 70 | 166 | 0.0 | 0.0 | 0.00 | 0.00 | 0.00 | 95 | 1018.5 |
| 20260902054816 | 70 | 152 | 0.0 | 0.0 | 0.00 | 0.00 | 0.00 | 95 | 1018.5 |
| 20260902054312 | 70 | 151 | 0.0 | 0.0 | 0.00 | 0.00 | 0.00 | 95 | 1018.3 |
| 20260902053807 | 70 | 140 | 0.0 | 0.0 | 0.00 | 0.00 | 0.00 | 95 | 1018.5 |
| 20260902053301 | 69 | 136 | 0.0 | 0.0 | 0.00 | 0.00 | 0.00 | 95 | 1018.5 |
| 20260902052800 | 69 | 144 | 0.0 | 0.0 | 0.00 | 0.00 | 0.00 | 95 | 1018.6 |
| 20260902052255 | 69 | 158 | 0.0 | 0.0 | 0.00 | 0.00 | 0.00 | 95 | 1018.7 |
| 20260902051749 | 69 | 129 | 0.0 | 0.0 | 0.00 | 0.00 | 0.00 | 95 | 1018.3 |
| 20260902051244 | 69 | 155 | 0.0 | 0.0 | 0.00 | 0.00 | 0.00 | 95 | 1018.4 |
| 20260902050739 | 69 | 156 | 0.0 | 0.0 | 0.00 | 0.00 | 0.00 | 95 | 1018.5 |
| 20260902050228 | 69 | 155 | 0.0 | 0.0 | 0.00 | 0.00 | 0.00 | 95 | 1018.3 |
| 20260902045728 | 69 | 154 | 0.0 | 0.0 | 0.00 | 0.00 | 0.00 | 95 | 1018.3 |
| 20260902045224 | 70 | 153 | 0.0 | 0.0 | 0.00 | 0.00 | 0.00 | 95 | 1018.2 |
| 20260902044720 | 70 | 153 | 0.0 | 0.0 | 0.00 | 0.00 | 0.00 | 95 | 1018.2 |
| 20260902044215 | 70 | 153 | 0.0 | 0.0 | 0.00 | 0.00 | 0.00 | 95 | 1018.2 |
| 20260902043710 | 70 | 151 | 0.0 | 0.0 | 0.00 | 0.00 | 0.00 | 95 | 1018.1 |
| 20260902043205 | 70 | 149 | 0.0 | 0.0 | 0.00 | 0.00 | 0.00 | 95 | 1018.3 |
| 20260902042659 | 70 | 149 | 0.0 | 0.0 | 0.00 | 0.00 | 0.00 | 95 | 1018.0 |
| 20260902042154 | 70 | 156 | 0.0 | 0.0 | 0.00 | 0.00 | 0.00 | 95 | 1017.8 |
| 20260902041654 | 70 | 156 | 0.0 | 0.0 | 0.00 | 0.00 | 0.00 | 95 | 1018.0 |
| 20260902041148 | 70 | 156 | 0.0 | 0.0 | 0.00 | 0.00 | 0.00 | 95 | 1018.0 |
| 20260902040642 | 70 | 156 | 0.0 | 0.0 | 0.00 | 0.00 | 0.00 | 95 | 1017.7 |
| 20260902040138 | 70 | 156 | 0.0 | 0.0 | 0.00 | 0.00 | 0.00 | 95 | 1017.9 |
| 20260902035636 | 70 | 181 | 0.0 | 0.0 | 0.00 | 0.43 | 0.43 | 95 | 1017.9 |
| 20260902035132 | 70 | 183 | 0.0 | 0.0 | 0.00 | 0.43 | 0.43 | 95 | 1018.0 |
| 20260902034631 | 70 | 183 | 0.0 | 0.0 | 0.00 | 0.43 | 0.43 | 95 | 1017.7 |
| 20260902034130 | 70 | 183 | 0.0 | 0.0 | 0.00 | 0.43 | 0.43 | 95 | 1017.6 |
| 20260902033630 | 70 | 182 | 0.0 | 0.0 | 0.00 | 0.43 | 0.43 | 95 | 1017.8 |
| 20260902033125 | 70 | 167 | 0.0 | 0.0 | 0.00 | 0.43 | 0.43 | 95 | 1017.7 |
| 20260902032623 | 70 | 168 | 0.0 | 0.0 | 0.00 | 0.43 | 0.43 | 95 | 1017.6 |
| 20260902032118 | 70 | 162 | 0.0 | 0.0 | 0.00 | 0.43 | 0.43 | 95 | 1017.6 |
| 20260902031613 | 70 | 138 | 0.0 | 0.0 | 0.00 | 0.43 | 0.43 | 95 | 1017.8 |
| 20260902031110 | 70 | 146 | 0.0 | 0.0 | 0.00 | 0.43 | 0.43 | 95 | 1017.8 |
| 20260902030609 | 70 | 147 | 0.0 | 0.0 | 0.00 | 0.43 | 0.43 | 95 | 1017.9 |
| 20260902030103 | 70 | 147 | 0.0 | 0.0 | 0.00 | 0.43 | 0.43 | 95 | 1017.9 |
| 20260902025558 | 70 | 147 | 0.0 | 0.0 | 0.00 | 0.43 | 0.43 | 95 | 1017.8 |
| 20260902025053 | 71 | 148 | 0.0 | 0.0 | 0.00 | 0.43 | 0.43 | 95 | 1018.0 |
| 20260902024549 | 71 | 149 | 0.0 | 0.0 | 0.00 | 0.43 | 0.43 | 95 | 1017.7 |
| 20260902024048 | 71 | 120 | 0.0 | 0.0 | 0.00 | 0.43 | 0.43 | 95 | 1017.8 |
| 20260902023544 | 71 | 154 | 0.0 | 0.0 | 0.00 | 0.43 | 0.43 | 95 | 1018.0 |
| 20260902023039 | 71 | 158 | 0.0 | 0.0 | 0.00 | 0.43 | 0.43 | 95 | 1017.8 |
| 20260902022539 | 71 | 158 | 0.0 | 0.0 | 0.00 | 0.43 | 0.43 | 95 | 1017.9 |
| 20260902022035 | 71 | 158 | 0.0 | 0.0 | 0.00 | 0.43 | 0.43 | 95 | 1017.7 |
| 20260902021530 | 71 | 152 | 0.0 | 0.0 | 0.00 | 0.43 | 0.43 | 95 | 1017.8 |
| 20260902021031 | 71 | 146 | 0.0 | 0.0 | 0.00 | 0.43 | 0.43 | 95 | 1017.7 |
| 20260902020526 | 71 | 144 | 0.0 | 0.0 | 0.00 | 0.43 | 0.43 | 95 | 1017.5 |
| 20260902020022 | 71 | 135 | 0.0 | 0.0 | 0.00 | 0.43 | 0.43 | 95 | 1017.6 |
| 20260902015518 | 71 | 136 | 0.0 | 0.0 | 0.00 | 0.43 | 0.43 | 95 | 1017.5 |
| 20260902015013 | 71 | 136 | 0.0 | 0.0 | 0.00 | 0.43 | 0.43 | 95 | 1017.8 |
| 20260902014510 | 71 | 136 | 0.0 | 0.0 | 0.00 | 0.43 | 0.43 | 95 | 1017.7 |
| 20260902014004 | 71 | 137 | 0.0 | 0.0 | 0.00 | 0.43 | 0.43 | 95 | 1017.5 |
| 20260902013458 | 71 | 136 | 0.0 | 0.0 | 0.00 | 0.43 | 0.43 | 95 | 1017.3 |
| 20260902012953 | 71 | 136 | 0.0 | 0.0 | 0.00 | 0.43 | 0.43 | 95 | 1017.3 |
| 20260902012444 | 71 | 136 | 0.0 | 0.0 | 0.00 | 0.43 | 0.43 | 95 | 1017.3 |
| 20260902011939 | 71 | 137 | 0.0 | 0.0 | 0.00 | 0.43 | 0.43 | 95 | 1017.5 |
| 20260902011435 | 72 | 137 | 0.0 | 0.0 | 0.00 | 0.43 | 0.43 | 95 | 1017.2 |
| 20260902010934 | 72 | 137 | 0.0 | 0.0 | 0.00 | 0.43 | 0.43 | 95 | 1017.1 |
| 20260902010429 | 72 | 137 | 0.0 | 0.0 | 0.00 | 0.43 | 0.43 | 95 | 1017.1 |
| 20260902005928 | 72 | 137 | 0.0 | 0.0 | 0.00 | 0.43 | 0.43 | 95 | 1017.0 |
| 20260902005427 | 72 | 137 | 0.0 | 0.0 | 0.00 | 0.43 | 0.43 | 95 | 1017.1 |
| 20260902004923 | 72 | 137 | 0.0 | 0.0 | 0.00 | 0.43 | 0.43 | 95 | 1016.8 |
| 20260902004422 | 73 | 137 | 0.0 | 0.0 | 0.00 | 0.43 | 0.43 | 95 | 1016.5 |
| 20260902003918 | 73 | 137 | 0.0 | 0.0 | 0.00 | 0.43 | 0.43 | 95 | 1016.9 |
| 20260902003413 | 73 | 137 | 0.0 | 0.0 | 0.00 | 0.43 | 0.43 | 95 | 1016.8 |
| 20260902002909 | 73 | 137 | 0.0 | 0.0 | 0.00 | 0.43 | 0.43 | 95 | 1016.4 |
| 20260902002408 | 73 | 136 | 0.0 | 0.0 | 0.00 | 0.43 | 0.43 | 95 | 1016.8 |
| 20260902001903 | 73 | 136 | 0.0 | 0.0 | 0.00 | 0.43 | 0.43 | 94 | 1016.2 |
| 20260902001358 | 73 | 144 | 0.0 | 0.0 | 0.00 | 0.43 | 0.43 | 94 | 1016.4 |
| 20260902000854 | 74 | 144 | 0.0 | 0.0 | 0.00 | 0.43 | 0.43 | 94 | 1016.2 |
| 20260902000353 | 74 | 143 | 0.0 | 0.9 | 0.00 | 0.43 | 0.43 | 94 | 1016.3 |
| 20260901235848 | 74 | 150 | 0.9 | 0.9 | 0.00 | 0.43 | 0.43 | 93 | 1016.3 |
| 20260901235343 | 74 | 154 | 0.0 | 0.0 | 0.00 | 0.43 | 0.43 | 93 | 1016.1 |
| 20260901234838 | 74 | 138 | 0.0 | 0.0 | 0.00 | 0.43 | 0.43 | 93 | 1016.1 |
| 20260901234332 | 74 | 131 | 0.9 | 0.9 | 0.00 | 0.43 | 0.43 | 92 | 1016.1 |
| 20260901233827 | 74 | 119 | 0.9 | 0.9 | 0.00 | 0.43 | 0.43 | 92 | 1016.4 |
| 20260901233323 | 75 | 147 | 0.0 | 0.9 | 0.00 | 0.43 | 0.43 | 91 | 1016.1 |
| 20260901232819 | 75 | 154 | 0.0 | 0.0 | 0.00 | 0.43 | 0.43 | 90 | 1016.2 |
| 20260901232313 | 75 | 160 | 0.0 | 0.0 | 0.00 | 0.43 | 0.43 | 90 | 1015.8 |
| 20260901231810 | 76 | 140 | 0.9 | 0.9 | 0.00 | 0.43 | 0.43 | 88 | 1015.7 |
| 20260901231306 | 77 | 142 | 0.0 | 0.0 | 0.00 | 0.43 | 0.43 | 88 | 1016.1 |
| 20260901230802 | 77 | 142 | 0.0 | 0.0 | 0.00 | 0.43 | 0.43 | 87 | 1015.8 |
| 20260901230301 | 77 | 141 | 0.0 | 0.9 | 0.00 | 0.43 | 0.43 | 86 | 1016.0 |
| 20260901225756 | 78 | 149 | 0.0 | 0.0 | 0.00 | 0.43 | 0.43 | 85 | 1016.1 |
| 20260901225250 | 78 | 147 | 0.9 | 0.9 | 0.00 | 0.43 | 0.43 | 85 | 1016.1 |
| 20260901224746 | 79 | 143 | 0.0 | 0.9 | 0.00 | 0.43 | 0.43 | 84 | 1016.2 |
| 20260901224242 | 79 | 237 | 0.9 | 0.9 | 0.00 | 0.43 | 0.43 | 84 | 1016.1 |
| 20260901223738 | 79 | 185 | 0.9 | 0.9 | 0.00 | 0.43 | 0.43 | 83 | 1015.9 |
| 20260901223238 | 79 | 125 | 0.9 | 0.9 | 0.00 | 0.43 | 0.43 | 83 | 1015.9 |
| 20260901222734 | 79 | 85 | 0.9 | 1.7 | 0.00 | 0.43 | 0.43 | 82 | 1015.8 |
| 20260901222230 | 79 | 132 | 0.9 | 0.9 | 0.00 | 0.43 | 0.43 | 82 | 1015.9 |
| 20260901221726 | 80 | 165 | 0.0 | 0.0 | 0.00 | 0.43 | 0.43 | 82 | 1015.9 |
| 20260901221222 | 80 | 188 | 0.9 | 1.7 | 0.00 | 0.43 | 0.43 | 82 | 1016.0 |
| 20260901220720 | 80 | 191 | 0.0 | 0.0 | 0.00 | 0.43 | 0.43 | 82 | 1016.0 |
| 20260901220215 | 80 | 216 | 1.7 | 1.7 | 0.00 | 0.43 | 0.43 | 81 | 1015.9 |
| 20260901215714 | 80 | 302 | 2.6 | 2.6 | 0.00 | 0.43 | 0.43 | 80 | 1016.2 |
| 20260901215208 | 81 | 231 | 1.7 | 1.7 | 0.00 | 0.43 | 0.43 | 80 | 1016.0 |
| 20260901214706 | 81 | 178 | 0.0 | 0.0 | 0.00 | 0.43 | 0.43 | 81 | 1016.0 |
| 20260901214200 | 81 | 149 | 0.0 | 0.0 | 0.00 | 0.43 | 0.43 | 81 | 1015.8 |
| 20260901213655 | 80 | 147 | 0.0 | 0.0 | 0.00 | 0.43 | 0.43 | 83 | 1015.8 |
| 20260901213150 | 80 | 136 | 0.0 | 0.0 | 0.00 | 0.43 | 0.43 | 84 | 1016.0 |
| 20260901212649 | 80 | 26 | 1.7 | 1.7 | 0.00 | 0.43 | 0.43 | 82 | 1015.9 |
| 20260901212145 | 80 | 193 | 0.0 | 0.0 | 0.00 | 0.43 | 0.43 | 83 | 1015.6 |
| 20260901211640 | 80 | 188 | 0.9 | 0.9 | 0.00 | 0.43 | 0.43 | 83 | 1015.7 |
| 20260901211136 | 80 | 129 | 0.9 | 0.9 | 0.00 | 0.43 | 0.43 | 83 | 1015.6 |
| 20260901210632 | 80 | 175 | 0.0 | 0.0 | 0.00 | 0.43 | 0.43 | 84 | 1015.7 |
| 20260901210127 | 80 | 193 | 0.0 | 0.9 | 0.00 | 0.43 | 0.43 | 84 | 1015.7 |
| 20260901205618 | 79 | 189 | 0.0 | 0.0 | 0.00 | 0.43 | 0.43 | 85 | 1015.8 |
| 20260901205117 | 80 | 125 | 0.0 | 0.9 | 0.00 | 0.43 | 0.43 | 85 | 1015.8 |
| 20260901204614 | 80 | 200 | 0.9 | 0.9 | 0.00 | 0.43 | 0.43 | 84 | 1015.7 |
| 20260901204114 | 80 | 168 | 0.0 | 0.0 | 0.00 | 0.43 | 0.43 | 85 | 1015.9 |
| 20260901203613 | 79 | 198 | 0.9 | 1.7 | 0.00 | 0.43 | 0.43 | 84 | 1015.7 |
| 20260901203108 | 79 | 231 | 1.7 | 1.7 | 0.00 | 0.43 | 0.43 | 85 | 1016.1 |
| 20260901202608 | 80 | 194 | 0.9 | 0.9 | 0.00 | 0.43 | 0.43 | 85 | 1015.7 |
| 20260901202104 | 79 | 169 | 0.0 | 0.0 | 0.00 | 0.43 | 0.43 | 86 | 1016.0 |
| 20260901201600 | 79 | 172 | 0.0 | 0.0 | 0.00 | 0.43 | 0.43 | 86 | 1016.0 |
| 20260901201059 | 79 | 169 | 0.0 | 0.0 | 0.00 | 0.43 | 0.43 | 87 | 1015.8 |
| 20260901200558 | 79 | 186 | 0.0 | 0.0 | 0.00 | 0.43 | 0.43 | 86 | 1015.9 |
| 20260901200054 | 79 | 226 | 1.7 | 1.7 | 0.00 | 0.43 | 0.43 | 86 | 1016.1 |
| 20260901195551 | 79 | 230 | 1.7 | 1.7 | 0.00 | 0.43 | 0.43 | 85 | 1016.0 |
| 20260901195046 | 79 | 185 | 0.0 | 0.0 | 0.00 | 0.43 | 0.43 | 85 | 1016.1 |
| 20260901194541 | 79 | 185 | 0.0 | 0.0 | 0.00 | 0.43 | 0.43 | 86 | 1016.1 |
| 20260901194037 | 79 | 184 | 0.0 | 0.0 | 0.00 | 0.43 | 0.43 | 86 | 1016.0 |
| 20260901193536 | 79 | 184 | 0.0 | 0.9 | 0.00 | 0.43 | 0.43 | 86 | 1016.0 |
| 20260901193031 | 79 | 169 | 0.0 | 0.0 | 0.00 | 0.43 | 0.43 | 86 | 1016.1 |
| 20260901192526 | 79 | 185 | 0.9 | 0.9 | 0.00 | 0.43 | 0.43 | 86 | 1016.0 |
| 20260901192022 | 79 | 208 | 0.9 | 0.9 | 0.00 | 0.43 | 0.43 | 86 | 1016.0 |
| 20260901191518 | 79 | 184 | 0.0 | 0.9 | 0.00 | 0.43 | 0.43 | 85 | 1016.0 |
| 20260901191014 | 80 | 195 | 0.0 | 0.0 | 0.00 | 0.43 | 0.43 | 86 | 1015.7 |
| 20260901190509 | 79 | 183 | 0.0 | 0.0 | 0.00 | 0.43 | 0.43 | 87 | 1016.1 |
| 20260901190007 | 79 | 183 | 0.0 | 0.0 | 0.00 | 0.43 | 0.43 | 86 | 1015.9 |
| 20260901185501 | 79 | 170 | 0.0 | 0.9 | 0.00 | 0.43 | 0.43 | 87 | 1015.8 |
| 20260901185000 | 78 | 169 | 0.0 | 0.0 | 0.00 | 0.43 | 0.43 | 87 | 1015.7 |
| 20260901184455 | 79 | 158 | 0.0 | 0.0 | 0.00 | 0.43 | 0.43 | 86 | 1015.7 |
| 20260901183951 | 78 | 183 | 0.0 | 0.0 | 0.00 | 0.43 | 0.43 | 87 | 1015.8 |
| 20260901183445 | 78 | 186 | 0.0 | 0.0 | 0.00 | 0.43 | 0.43 | 87 | 1015.9 |
| 20260901182940 | 78 | 183 | 0.0 | 0.0 | 0.00 | 0.43 | 0.43 | 87 | 1015.7 |
| 20260901182437 | 78 | 229 | 0.9 | 1.7 | 0.00 | 0.43 | 0.43 | 86 | 1015.8 |
| 20260901181931 | 78 | 243 | 2.6 | 2.6 | 0.00 | 0.43 | 0.43 | 85 | 1015.6 |
| 20260901181426 | 79 | 215 | 2.6 | 2.6 | 0.00 | 0.43 | 0.43 | 84 | 1015.9 |
| 20260901180925 | 78 | 174 | 0.0 | 0.0 | 0.00 | 0.43 | 0.43 | 86 | 1015.5 |
| 20260901180424 | 78 | 260 | 2.6 | 2.6 | 0.00 | 0.43 | 0.43 | 86 | 1015.5 |
| 20260901175922 | 78 | 206 | 0.0 | 0.0 | 0.00 | 0.43 | 0.43 | 86 | 1015.7 |
| 20260901175418 | 78 | 185 | 0.0 | 0.0 | 0.00 | 0.43 | 0.43 | 87 | 1015.6 |
| 20260901174913 | 77 | 278 | 1.7 | 1.7 | 0.00 | 0.43 | 0.43 | 87 | 1015.5 |
| 20260901174409 | 77 | 156 | 0.9 | 0.9 | 0.00 | 0.43 | 0.43 | 89 | 1015.4 |
| 20260901173904 | 77 | 166 | 0.0 | 0.0 | 0.00 | 0.43 | 0.43 | 88 | 1015.7 |
| 20260901173359 | 77 | 169 | 0.9 | 0.9 | 0.00 | 0.43 | 0.43 | 88 | 1015.5 |
| 20260901172855 | 77 | 264 | 3.5 | 4.3 | 0.00 | 0.43 | 0.43 | 88 | 1015.5 |
| 20260901172355 | 76 | 298 | 2.6 | 2.6 | 0.00 | 0.43 | 0.43 | 92 | 1015.5 |
| 20260901171853 | 75 | 251 | 1.7 | 1.7 | 0.00 | 0.43 | 0.43 | 95 | 1015.5 |
| 20260901171352 | 74 | 204 | 0.9 | 0.9 | 0.00 | 0.43 | 0.43 | 95 | 1015.7 |
| 20260901170850 | 73 | 162 | 0.0 | 0.0 | 0.00 | 0.43 | 0.43 | 95 | 1015.3 |
| 20260901170346 | 73 | 146 | 0.0 | 0.0 | 0.00 | 0.43 | 0.43 | 95 | 1015.7 |
| 20260901165840 | 72 | 144 | 0.0 | 0.0 | 0.00 | 0.43 | 0.43 | 95 | 1015.7 |
| 20260901165334 | 72 | 276 | 2.6 | 2.6 | 0.00 | 0.43 | 0.43 | 95 | 1015.6 |
| 20260901164831 | 72 | 174 | 0.9 | 1.7 | 0.00 | 0.43 | 0.43 | 95 | 1015.6 |
| 20260901164326 | 72 | 205 | 0.0 | 0.9 | 0.00 | 0.43 | 0.43 | 95 | 1015.6 |
| 20260901163826 | 72 | 151 | 0.9 | 0.9 | 0.00 | 0.43 | 0.43 | 95 | 1015.6 |
| 20260901163321 | 72 | 155 | 0.0 | 0.0 | 0.00 | 0.43 | 0.43 | 95 | 1015.5 |
| 20260901162816 | 72 | 161 | 0.0 | 0.0 | 0.00 | 0.43 | 0.43 | 95 | 1015.8 |
| 20260901162315 | 72 | 156 | 0.0 | 0.0 | 0.00 | 0.43 | 0.43 | 95 | 1016.0 |
| 20260901161814 | 72 | 162 | 0.0 | 0.0 | 0.00 | 0.43 | 0.43 | 95 | 1015.9 |
| 20260901161309 | 71 | 131 | 0.0 | 0.0 | 0.00 | 0.43 | 0.43 | 95 | 1015.9 |
| 20260901160804 | 71 | 138 | 0.0 | 0.0 | 0.00 | 0.43 | 0.43 | 95 | 1015.7 |
| 20260901160300 | 71 | 137 | 0.0 | 0.0 | 0.00 | 0.43 | 0.43 | 95 | 1015.9 |
| 20260901155759 | 71 | 131 | 0.0 | 0.0 | 0.00 | 0.43 | 0.43 | 95 | 1015.9 |
| 20260901155254 | 71 | 156 | 0.0 | 0.0 | 0.00 | 0.43 | 0.43 | 95 | 1015.8 |
| 20260901154749 | 71 | 175 | 0.0 | 0.0 | 0.00 | 0.43 | 0.43 | 95 | 1015.9 |
| 20260901154244 | 71 | 173 | 0.0 | 0.0 | 0.00 | 0.43 | 0.43 | 95 | 1015.9 |
| 20260901153740 | 70 | 164 | 0.0 | 0.0 | 0.00 | 0.43 | 0.43 | 95 | 1015.8 |
| 20260901153239 | 71 | 171 | 0.0 | 0.0 | 0.00 | 0.43 | 0.43 | 95 | 1015.9 |
| 20260901152738 | 71 | 147 | 0.0 | 0.0 | 0.00 | 0.43 | 0.43 | 95 | 1015.9 |
| 20260901152237 | 70 | 146 | 0.0 | 0.0 | 0.00 | 0.43 | 0.43 | 95 | 1016.1 |
| 20260901151733 | 70 | 138 | 0.0 | 0.0 | 0.00 | 0.43 | 0.43 | 95 | 1016.1 |
| 20260901151232 | 70 | 157 | 0.0 | 0.0 | 0.00 | 0.43 | 0.43 | 95 | 1016.2 |
| 20260901150726 | 70 | 157 | 0.0 | 0.0 | 0.00 | 0.43 | 0.43 | 95 | 1016.2 |
| 20260901150225 | 70 | 157 | 0.0 | 0.0 | 0.00 | 0.43 | 0.43 | 95 | 1016.0 |
| 20260901145723 | 70 | 165 | 0.0 | 0.0 | 0.00 | 0.43 | 0.43 | 95 | 1016.0 |
| 20260901145222 | 70 | 236 | 0.0 | 0.0 | 0.00 | 0.43 | 0.43 | 95 | 1016.2 |
| 20260901144718 | 70 | 150 | 0.0 | 0.0 | 0.00 | 0.43 | 0.43 | 95 | 1016.0 |
| 20260901144213 | 70 | 150 | 0.0 | 0.0 | 0.00 | 0.43 | 0.43 | 95 | 1016.0 |
| 20260901143708 | 70 | 172 | 0.0 | 0.0 | 0.00 | 0.43 | 0.43 | 95 | 1016.0 |
| 20260901143205 | 70 | 170 | 0.0 | 0.0 | 0.00 | 0.43 | 0.43 | 95 | 1015.8 |
| 20260901142701 | 69 | 142 | 0.9 | 1.7 | 0.00 | 0.43 | 0.43 | 95 | 1015.9 |
| 20260901142159 | 70 | 166 | 0.9 | 1.7 | 0.00 | 0.43 | 0.43 | 95 | 1015.9 |
| 20260901141654 | 70 | 173 | 0.0 | 0.0 | 0.00 | 0.43 | 0.43 | 95 | 1015.9 |
| 20260901141149 | 69 | 147 | 0.0 | 0.0 | 0.00 | 0.43 | 0.43 | 95 | 1015.6 |
| 20260901140648 | 69 | 159 | 0.0 | 0.0 | 0.00 | 0.43 | 0.43 | 95 | 1015.6 |
| 20260901140146 | 69 | 163 | 0.0 | 0.0 | 0.00 | 0.43 | 0.43 | 95 | 1015.9 |
| 20260901135642 | 69 | 137 | 0.0 | 0.0 | 0.00 | 0.43 | 0.43 | 95 | 1015.9 |
| 20260901135136 | 69 | 163 | 0.0 | 0.0 | 0.00 | 0.43 | 0.43 | 95 | 1016.0 |
| 20260901134633 | 69 | 126 | 0.9 | 0.9 | 0.00 | 0.43 | 0.43 | 95 | 1015.8 |
| 20260901134127 | 69 | 147 | 0.0 | 0.0 | 0.00 | 0.43 | 0.43 | 95 | 1015.9 |
| 20260901133627 | 69 | 127 | 0.0 | 0.9 | 0.00 | 0.43 | 0.43 | 95 | 1015.9 |
| 20260901133125 | 69 | 144 | 0.0 | 0.0 | 0.00 | 0.43 | 0.43 | 95 | 1016.1 |
| 20260901132620 | 68 | 148 | 0.0 | 0.0 | 0.00 | 0.43 | 0.43 | 95 | 1016.1 |
| 20260901132119 | 68 | 120 | 0.9 | 0.9 | 0.00 | 0.43 | 0.43 | 95 | 1016.3 |
| 20260901131620 | 68 | 166 | 0.0 | 0.0 | 0.00 | 0.43 | 0.43 | 95 | 1016.5 |
| 20260901131114 | 69 | 160 | 0.0 | 0.0 | 0.00 | 0.43 | 0.43 | 95 | 1016.0 |
| 20260901130610 | 69 | 141 | 0.0 | 0.9 | 0.00 | 0.43 | 0.43 | 95 | 1016.2 |
| 20260901130108 | 68 | 136 | 0.9 | 0.9 | 0.00 | 0.43 | 0.43 | 95 | 1016.3 |
| 20260901125606 | 69 | 134 | 0.0 | 0.0 | 0.00 | 0.43 | 0.43 | 95 | 1016.3 |
| 20260901125101 | 68 | 125 | 0.0 | 0.0 | 0.00 | 0.43 | 0.43 | 95 | 1016.2 |
| 20260901124556 | 68 | 135 | 0.0 | 0.9 | 0.00 | 0.43 | 0.43 | 95 | 1016.0 |
| 20260901124051 | 68 | 130 | 0.0 | 0.0 | 0.00 | 0.43 | 0.43 | 95 | 1016.2 |
| 20260901123546 | 67 | 119 | 0.9 | 0.9 | 0.00 | 0.43 | 0.43 | 95 | 1016.7 |
| 20260901123045 | 67 | 127 | 1.7 | 1.7 | 0.00 | 0.43 | 0.43 | 95 | 1016.8 |
| 20260901122543 | 67 | 154 | 0.0 | 0.9 | 0.00 | 0.43 | 0.43 | 95 | 1016.8 |
| 20260901122037 | 67 | 131 | 0.0 | 0.0 | 0.00 | 0.43 | 0.43 | 95 | 1016.9 |
| 20260901121532 | 67 | 177 | 0.0 | 0.0 | 0.00 | 0.43 | 0.43 | 95 | 1017.1 |
| 20260901121028 | 67 | 150 | 0.0 | 0.0 | 0.00 | 0.43 | 0.43 | 95 | 1016.8 |